FW1075 Weather Reports


time (UTC)temp
C
wind
direction
speed
KPH
gust
KPH
rain 1hr
cm
rain 24hr
cm
rain mn
cm
humidity
%
barometer
mb
20260906203121 25 210 4.8 8.0 0.00 0.56 0.56 72 1012.9
20260906202121 26 236 4.8 9.7 0.00 0.56 0.56 68 1013.1
20260906201121 26 269 4.8 8.0 0.00 0.56 0.56 67 1013.1
20260906200143 25 178 4.8 6.4 0.00 0.56 0.56 71 1013.1
20260906195121 25 341 4.8 9.7 0.00 0.56 0.56 71 1013.0
20260906194121 24 186 4.8 8.0 0.00 0.56 0.56 75 1013.0
20260906193121 23 189 4.8 8.0 0.00 0.56 0.56 75 1013.0
20260906192121 24 198 4.8 6.4 0.00 0.56 0.56 75 1013.1
20260906191121 25 234 4.8 9.7 0.00 0.56 0.56 72 1013.0
20260906190123 25 218 4.8 9.7 0.00 0.56 0.56 69 1013.0
20260906185122 26 313 3.2 4.8 0.00 0.56 0.56 60 1012.9
20260906184143 25 108 3.2 9.7 0.00 0.56 0.56 63 1013.0
20260906183122 27 97 6.4 9.7 0.00 0.56 0.56 60 1013.1
20260906182126 26 242 3.2 6.4 0.00 0.56 0.56 63 1013.1
20260906181123 26 14 4.8 8.0 0.00 0.56 0.56 61 1013.2
20260906180123 26 42 6.4 9.7 0.00 0.56 0.56 62 1013.2
20260906175121 25 327 3.2 9.7 0.00 0.56 0.56 66 1013.2
20260906174122 26 23 4.8 8.0 0.00 0.56 0.56 65 1013.2
20260906173121 26 119 3.2 6.4 0.00 0.56 0.56 65 1013.4
20260906172125 25 63 3.2 9.7 0.00 0.56 0.56 69 1013.4
20260906171121 23 91 4.8 9.7 0.00 0.56 0.56 73 1013.5
20260906170124 23 71 1.6 8.0 0.00 0.56 0.56 71 1013.5
20260906165121 24 104 3.2 8.0 0.00 0.56 0.56 74 1013.6
20260906164122 25 70 4.8 8.0 0.00 0.56 0.56 71 1013.6
20260906163126 24 48 3.2 6.4 0.00 0.56 0.56 73 1013.6
20260906162124 23 4 3.2 8.0 0.00 0.56 0.56 74 1013.7
20260906161123 23 9 3.2 8.0 0.00 0.56 0.56 76 1013.6
20260906160121 23 327 3.2 8.0 0.00 0.56 0.56 78 1013.6
20260906155123 23 36 4.8 8.0 0.00 0.56 0.56 75 1013.7
20260906154128 23 92 4.8 8.0 0.00 0.56 0.56 77 1013.7
20260906153124 23 60 4.8 6.4 0.00 0.56 0.56 78 1013.7
20260906152124 23 81 4.8 8.0 0.00 0.56 0.56 77 1013.8
20260906151122 23 51 4.8 9.7 0.00 0.56 0.56 78 1013.6
20260906150121 23 76 3.2 8.0 0.00 0.56 0.56 79 1013.4
20260906145143 22 44 1.6 4.8 0.00 0.56 0.56 83 1013.4
20260906144122 22 45 4.8 9.7 0.00 0.56 0.56 83 1013.5
20260906143124 22 87 4.8 6.4 0.00 0.56 0.56 81 1013.5
20260906142125 22 37 4.8 8.0 0.00 0.56 0.56 82 1013.2
20260906141123 22 31 4.8 8.0 0.00 0.56 0.56 84 1013.2
20260906140121 23 299 3.2 6.4 0.00 0.56 0.56 82 1013.2
20260906135147 21 69 3.2 6.4 0.00 0.56 0.56 86 1013.4
20260906134121 21 76 3.2 6.4 0.00 0.56 0.56 88 1013.4
20260906133125 21 358 3.2 8.0 0.00 0.56 0.56 91 1013.2
20260906132121 20 108 4.8 6.4 0.00 0.56 0.56 93 1013.2
20260906131121 20 43 3.2 6.4 0.00 0.56 0.56 95 1013.4
20260906130121 20 85 4.8 9.7 0.00 0.56 0.56 91 1013.4
20260906125121 21 70 3.2 6.4 0.00 0.56 0.56 88 1013.2
20260906124121 20 3 3.2 6.4 0.00 0.56 0.56 90 1013.1
20260906123123 21 102 3.2 6.4 0.00 0.56 0.56 84 1012.9
20260906122125 20 107 3.2 4.8 0.00 0.56 0.56 85 1012.9
20260906121122 20 81 3.2 4.8 0.00 0.56 0.56 90 1012.8
20260906120122 19 85 1.6 4.8 0.00 0.56 0.56 93 1012.8
20260906115121 18 65 0.0 4.8 0.00 0.56 0.56 95 1012.7
20260906114122 18 90 0.0 1.6 0.00 0.56 0.56 98 1012.5
20260906113125 18 113 0.0 0.0 0.00 0.56 0.56 99 1012.2
20260906112121 18 90 0.0 0.0 0.00 0.56 0.56 99 1012.0
20260906111126 17 23 0.0 0.0 0.00 0.56 0.56 99 1012.1
20260906110128 16 270 0.0 0.0 0.00 0.56 0.56 99 1012.1
20260906105122 16 360 0.0 0.0 0.00 0.56 0.56 99 1011.9
20260906104124 16 105 0.0 4.8 0.00 0.56 0.56 99 1011.7
20260906103146 16 131 0.0 3.2 0.00 0.56 0.56 99 1011.7
20260906102126 16 46 0.0 3.2 0.00 0.56 0.56 99 1011.6
20260906101122 16 23 1.6 4.8 0.00 0.56 0.56 99 1011.5
20260906100121 16 23 0.0 4.8 0.00 0.56 0.56 99 1011.5
20260906095125 16 23 0.0 3.2 0.00 0.56 0.56 99 1011.4
20260906094143 16 357 0.0 4.8 0.00 0.56 0.56 99 1011.2
20260906093121 16 48 0.0 3.2 0.00 0.56 0.56 99 1010.9
20260906092122 17 88 1.6 4.8 0.00 0.56 0.56 99 1010.9
20260906091121 17 23 0.0 0.0 0.00 0.56 0.56 99 1010.8
20260906090121 17 59 0.0 4.8 0.00 0.56 0.56 99 1010.8
20260906085143 17 37 1.6 4.8 0.00 0.56 0.56 99 1010.7
20260906084125 17 48 1.6 4.8 0.00 0.56 0.56 99 1010.7
20260906083121 17 4 0.0 3.2 0.00 0.56 0.56 99 1010.5
20260906082121 17 3 0.0 1.6 0.00 0.56 0.56 99 1010.2
20260906081121 17 86 1.6 4.8 0.00 0.56 0.56 99 1010.4
20260906080121 18 105 1.6 4.8 0.00 0.56 0.56 99 1010.4
20260906075123 18 56 1.6 6.4 0.00 0.56 0.56 99 1010.4
20260906074123 18 92 1.6 4.8 0.00 0.56 0.56 99 1010.4
20260906073143 18 87 1.6 4.8 0.00 0.56 0.56 99 1010.6
20260906072122 18 105 1.6 6.4 0.00 0.56 0.56 99 1010.5
20260906071121 18 62 1.6 4.8 0.00 0.56 0.56 99 1010.2
20260906070122 18 59 1.6 6.4 0.00 0.56 0.56 99 1010.2
20260906065122 18 87 1.6 3.2 0.08 0.56 0.56 99 1010.2
20260906064123 17 113 0.0 0.0 0.56 0.56 0.56 99 1010.2
20260906063122 18 337 0.0 3.2 0.56 0.56 0.56 99 1010.4
20260906062122 18 9 1.6 4.8 0.56 0.56 0.56 99 1010.6
20260906061122 18 94 1.6 6.4 0.56 0.56 0.56 99 1010.6
20260906060122 18 138 3.2 6.4 0.56 0.56 0.56 99 1010.6
20260906055122 19 150 3.2 9.7 0.48 0.48 0.48 99 1010.9
20260906054122 20 96 4.8 9.7 0.00 0.00 0.00 98 1010.6
20260906053122 21 114 4.8 8.0 0.00 0.00 0.00 97 1010.5
20260906052123 21 128 1.6 4.8 0.00 0.00 0.00 96 1010.5
20260906051144 21 212 1.6 3.2 0.00 0.00 0.00 96 1010.6
20260906050121 20 223 1.6 3.2 0.00 0.00 0.00 97 1010.6
20260906045142 20 114 3.2 8.0 0.00 0.00 0.00 97 1010.6
20260906044121 20 129 3.2 6.4 0.00 0.00 0.00 97 1010.6
20260906043121 20 108 1.6 4.8 0.00 0.00 0.00 96 1010.6
20260906042143 20 98 0.0 3.2 0.00 0.00 0.00 95 1010.7
20260906041123 20 96 1.6 3.2 0.00 0.00 0.00 95 1010.6
20260906040123 20 94 1.6 3.2 0.00 0.00 0.00 94 1010.6
20260906035123 20 102 1.6 3.2 0.00 0.00 0.00 90 1010.6
20260906034121 20 55 0.0 3.2 0.00 0.00 0.00 90 1010.4
20260906033122 20 78 1.6 3.2 0.00 0.00 0.00 90 1010.4
20260906032122 21 112 1.6 4.8 0.00 0.00 0.00 89 1010.2
20260906031123 21 124 3.2 4.8 0.00 0.00 0.00 88 1010.2
20260906030124 21 96 1.6 3.2 0.00 0.00 0.00 86 1010.2
20260906025145 21 109 0.0 3.2 0.00 0.00 0.00 85 1010.2
20260906024124 21 89 1.6 3.2 0.00 0.00 0.00 83 1010.2
20260906023122 21 294 1.6 3.2 0.00 0.00 0.00 82 1010.1
20260906022122 21 33 3.2 6.4 0.00 0.00 0.00 80 1010.2
20260906021122 21 92 3.2 6.4 0.00 0.00 0.00 79 1010.0
20260906020122 21 54 1.6 4.8 0.00 0.00 0.00 78 1010.0
20260906015143 21 61 3.2 4.8 0.00 0.00 0.00 77 1009.9
20260906014142 22 113 3.2 6.4 0.00 0.00 0.00 76 1009.8
20260906013142 22 43 3.2 6.4 0.00 0.00 0.00 75 1009.8
20260906012127 22 71 3.2 6.4 0.00 0.00 0.00 75 1009.6
20260906011121 22 14 3.2 6.4 0.00 0.00 0.00 75 1009.5
20260906010124 22 344 3.2 8.0 0.00 0.00 0.00 75 1009.5
20260906005122 23 188 1.6 6.4 0.00 0.00 0.00 75 1009.5
20260906004121 23 298 1.6 6.4 0.00 0.00 0.00 75 1009.4
20260906003121 23 6 1.6 6.4 0.00 0.00 0.00 74 1009.2
20260906002121 23 74 3.2 4.8 0.00 0.00 0.00 73 1009.0
20260906001121 23 81 3.2 8.0 0.00 0.00 0.00 73 1009.0
20260906000142 23 93 3.2 6.4 0.00 0.00 0.00 71 1009.0
20260905235121 23 109 4.8 6.4 0.00 0.00 0.00 70 1008.8
20260905234123 24 87 3.2 6.4 0.00 0.00 0.00 69 1008.8
20260905233121 25 111 3.2 6.4 0.00 0.00 0.00 68 1008.7
20260905232124 25 0 4.8 11.3 0.00 0.00 0.00 66 1008.7
20260905231142 25 6 3.2 8.0 0.00 0.00 0.00 64 1008.5
20260905230127 25 357 3.2 8.0 0.00 0.00 0.00 64 1008.5
20260905225125 25 322 4.8 11.3 0.00 0.00 0.00 62 1008.4
20260905224122 26 3 4.8 11.3 0.00 0.00 0.00 61 1008.4
20260905223122 26 283 6.4 11.3 0.00 0.00 0.00 60 1008.4
20260905222143 26 309 6.4 9.7 0.00 0.00 0.00 60 1008.2
20260905221122 26 343 4.8 9.7 0.00 0.00 0.00 59 1008.1
20260905220121 26 354 6.4 14.5 0.00 0.00 0.00 59 1008.1
20260905215121 27 2 4.8 9.7 0.00 0.00 0.00 58 1008.0
20260905214121 27 312 4.8 8.0 0.00 0.00 0.00 56 1008.1
20260905213121 27 284 6.4 9.7 0.00 0.00 0.00 56 1008.0
20260905212121 27 281 4.8 11.3 0.00 0.00 0.00 55 1007.9
20260905211121 28 330 6.4 9.7 0.00 0.00 0.00 55 1008.0
20260905210121 28 314 6.4 11.3 0.00 0.00 0.00 54 1008.0
20260905205142 28 311 4.8 8.0 0.00 0.00 0.00 53 1008.0
20260905204121 28 252 4.8 11.3 0.00 0.00 0.00 54 1007.9